[[{"header":{"parameterUnit":"m.s-1","parameterCategory":1,"la1":30.2991,"la2":30.254,"lo1":-89.0895,"lo2":-89.0444,"dy":0.0017,"dx":0.0017,"nx":28,"ny":28,"refTime":"2025-06-19T09:00:00:Z","depth":0,"parameterNumber":2,"parameterNumberName":"U-component_of_WINDS"},"data":[0,0,0,0,0,0,0,0,0,0,0,0,0,0,0,0,0,0,0,0,0,0,0,0,0,0,0,0,0,0,0,0,0,0,0,0,0,0,0,0,0,0,0,0,0,0,0,0,0,0,0,0,0,0,0,0,0,0,2.0342,2.0343,0,2.0447,2.0448,2.0449,2.0444,2.0442,2.0441,2.0439,2.0552,2.0557,2.0561,0,0,0,0,0,0,0,0,0,0,0,0,0,2.0141,2.0144,2.0342,2.0343,2.0344,2.0446,2.0448,2.0449,2.0444,2.0442,2.044,2.0439,2.0551,2.0556,2.0562,0,0,0,0,0,0,0,0,0,0,0,0,0,2.0235,2.0145,2.0341,2.0354,2.0356,2.0446,2.0448,2.045,2.0444,2.0442,2.044,2.0438,2.0549,2.0556,2.0562,2.0649,0,0,2.0583,2.0585,0,0,0,0,0,0,0,0,2.023,2.0242,2.0351,2.0353,2.0355,2.043,2.0419,2.0517,2.0445,2.0411,2.0439,2.0437,2.0514,2.0523,2.0548,2.0654,2.0659,2.0583,2.0587,2.059,2.0592,0,0,0,0,0,0,0,2.0223,2.0238,2.0383,2.0352,2.0355,2.0355,2.0366,2.0437,2.0474,2.0414,2.0414,2.0426,2.0515,2.0542,2.0551,2.0661,2.0583,2.0589,2.0593,2.0596,2.0842,2.0845,0,0,0,0,0,0,2.0213,2.0233,2.038,2.0386,2.0285,2.0361,2.0373,2.0408,2.0473,2.0481,2.0428,2.0425,2.0531,2.0543,2.0555,2.066,2.059,2.0596,2.06,2.084,2.0843,2.0846,0,0,0,0,0,0,2.0209,2.0226,2.0376,2.0309,2.0328,2.0367,2.0406,2.0412,2.0438,2.0484,2.0491,2.0448,2.053,2.0545,2.0625,2.0663,2.0599,2.0605,2.0837,2.0841,2.0844,2.087,0,0,0,0,0,0,2.0203,2.0225,2.0257,2.031,2.0332,2.0443,2.0409,2.0415,2.0449,2.0447,2.0505,2.0512,2.053,2.0615,2.0632,2.0671,2.061,2.0834,2.0839,2.0843,2.0866,2.0875,2.0882,0,0,0,0,0,2.0196,2.0262,2.0259,2.0277,2.0373,2.0445,2.0458,2.0475,2.0452,2.0486,2.0515,2.051,2.0657,2.0623,2.0642,2.0684,2.0831,2.0837,2.0843,2.0863,2.0873,2.0882,0,0,0,0,0,0,2.0215,2.0269,2.0266,2.0351,2.0393,2.0444,2.0487,2.0485,2.0536,2.0532,2.0553,2.0566,2.0646,2.0673,2.0635,2.0771,2.0741,2.0751,2.075,2.076,2.0768,2.0759,2.0616,0,0,0,0,0,2.0228,2.0281,2.0326,2.0396,2.0418,2.0448,2.0481,2.049,2.0535,2.0554,2.0588,2.0634,2.069,2.0727,2.0781,2.087,2.0883,2.0909,2.0916,2.0923,2.0931,2.0979,2.0991,2.0865,2.0865,2.0865,0,0,2.0258,2.0294,2.0326,2.0401,2.0435,2.049,2.0464,2.0523,2.0565,2.0563,2.0639,2.0667,2.0719,2.0803,2.0843,2.0829,2.0968,2.093,2.0934,2.0939,2.0986,2.0998,2.1009,2.0869,2.0868,2.0867,0,0,2.0339,2.0371,2.0433,2.0467,2.0517,2.0537,2.0552,2.0603,2.062,2.0697,2.0697,2.0747,2.0843,2.088,2.0912,2.1005,2.1003,2.1023,2.1063,2.111,2.112,2.1129,2.1162,2.1173,2.1031,2.1031,2.1031,0,2.0369,2.045,2.0465,2.0525,2.0558,2.0557,2.062,2.0653,2.0719,2.0743,2.0726,2.0846,2.0881,2.0973,2.0996,2.1022,2.104,2.1016,2.1117,2.1126,2.1135,2.1166,2.1179,2.1033,2.1033,2.1032,2.1032,0,2.0485,2.0541,2.0585,2.0647,2.0685,2.0746,2.0771,2.0808,2.0814,2.0836,2.0914,2.0956,2.1018,2.1041,2.1049,2.1135,2.1124,2.1112,2.1083,2.1148,2.1178,2.1191,2.1036,2.1035,2.1034,2.1034,0,0,2.0581,2.0649,2.0665,2.0692,2.0748,2.0792,2.0854,2.0912,2.0943,2.099,2.1041,2.1122,2.1111,2.1147,2.1158,2.1199,2.127,2.1182,2.1184,2.1196,2.1366,2.1374,2.1388,2.1269,2.1271,2.1273,2.1362,0,2.0667,2.0773,2.0788,2.0882,2.0935,2.0934,2.0988,2.1028,2.105,2.1099,2.1124,2.118,2.1162,2.1183,2.1224,2.1252,2.1304,2.1246,2.1318,2.132,2.1303,2.1404,2.1413,2.1494,2.1373,2.1375,2.1377,0,2.0782,2.0828,2.0927,2.0974,2.0997,2.1044,2.1098,2.1145,2.1191,2.1204,2.1243,2.1249,2.1313,2.1281,2.137,2.133,2.136,2.1379,2.1382,2.1389,2.1352,2.1413,2.1521,2.1533,2.1396,2.1394,2.1393,0,2.084,2.0928,2.0998,2.1022,2.1079,2.1112,2.1138,2.1182,2.1216,2.1264,2.1286,2.1342,2.1373,2.1416,2.1438,2.1412,2.1525,2.1495,2.1538,2.1537,2.1561,2.1559,2.1675,2.1582,2.1582,2.1582,2.1582,0,2.0934,2.0995,2.1025,2.1068,2.1136,2.1153,2.122,2.1245,2.1284,2.1332,2.1337,2.1383,2.1408,2.1458,2.1476,2.1546,2.156,2.1573,2.1577,2.1572,2.157,2.1592,2.1586,2.1585,2.1584,2.1584,2.1583,0,2.1011,2.1034,2.111,2.1158,2.1171,2.1219,2.126,2.1302,2.1323,2.1385,2.14,2.1435,2.1493,2.1519,2.1592,2.1604,2.1684,2.1684,2.1668,2.1669,2.171,2.1706,2.1843,2.1862,2.1757,2.1758,2.1759,0,2.1069,2.1115,2.1167,2.1199,2.1225,2.1276,2.131,2.1329,2.1365,2.142,2.1456,2.1514,2.1562,2.1656,2.1688,2.1744,2.1745,2.179,2.1754,2.1747,2.1745,2.1741,2.1745,2.1796,2.1797,2.1798,2.1799,0,2.1169,2.1178,2.1226,2.1278,2.1318,2.136,2.1402,2.1428,2.1454,2.1494,2.1552,2.1589,2.1663,2.1721,2.1778,2.1806,2.1807,2.1809,2.1822,2.1818,2.1805,2.1811,2.1684,2.1806,2.1805,2.1805,2.1804,2.1804,2.1238,2.1278,2.132,2.1374,2.1406,2.1445,2.1486,2.1512,2.1561,2.1621,2.163,2.1693,2.1737,2.1814,2.1844,2.1894,2.1883,2.1902,2.1907,2.1911,2.1913,2.1798,2.1905,2.1905,2.1905,2.1905,2.1904,0,2.1337,2.1364,2.1413,2.1469,2.1511,2.1507,2.1552,2.1588,2.1642,2.1683,2.1729,2.1797,2.1853,2.1889,2.1946,2.1979,2.198,2.1993,2.199,2.1996,2.192,2.1902,2.199,2.199,2.199,2.199,2.199,2.199,2.1394,2.1461,2.1475,2.1559,2.1586,2.1646,2.1672,2.1708,2.174,2.1814,2.186,2.1883,2.1922,2.1981,2.2032,2.2042,2.2062,2.2075,2.2083,2.2011,2.2002,2.1993,2.1977,2.2079,2.2079,2.2156,2.2156,2.2157]},{"header":{"parameterUnit":"m.s-1","parameterCategory":1,"la1":30.2991,"la2":30.254,"lo1":-89.0895,"lo2":-89.0444,"dy":0.0017,"dx":0.0017,"nx":28,"ny":28,"refTime":"2025-06-19T09:00:00:Z","depth":0,"parameterNumber":3,"parameterNumberName":"V-component_of_WINDS"},"data":[0,0,0,0,0,0,0,0,0,0,0,0,0,0,0,0,0,0,0,0,0,0,0,0,0,0,0,0,0,0,0,0,0,0,0,0,0,0,0,0,0,0,0,0,0,0,0,0,0,0,0,0,0,0,0,0,0,0,3.0852,3.0852,0,3.0835,3.0835,3.0835,3.0815,3.0815,3.0815,3.0815,3.0794,3.0793,3.0793,0,0,0,0,0,0,0,0,0,0,0,0,0,3.086,3.086,3.0852,3.0852,3.0851,3.0835,3.0835,3.0835,3.0815,3.0815,3.0815,3.0814,3.0794,3.0793,3.0793,0,0,0,0,0,0,0,0,0,0,0,0,0,3.0851,3.086,3.0852,3.084,3.0839,3.0835,3.0835,3.0835,3.0816,3.0815,3.0815,3.0814,3.0794,3.0793,3.0793,3.0799,0,0,3.0792,3.0791,0,0,0,0,0,0,0,0,3.0852,3.0851,3.0842,3.0841,3.0839,3.0827,3.083,3.0822,3.0816,3.0824,3.0815,3.0814,3.0805,3.0803,3.0801,3.0798,3.0797,3.0792,3.0791,3.0791,3.0791,0,0,0,0,0,0,0,3.0853,3.0852,3.0845,3.0842,3.084,3.0833,3.0831,3.0829,3.0817,3.0823,3.0822,3.082,3.0804,3.0802,3.08,3.0796,3.0792,3.0791,3.0791,3.0791,3.0792,3.0792,0,0,0,0,0,0,3.0856,3.0852,3.0846,3.0845,3.0845,3.0833,3.0831,3.0831,3.0817,3.0814,3.0821,3.082,3.0803,3.0801,3.08,3.0803,3.0791,3.0791,3.079,3.0792,3.0792,3.0792,0,0,0,0,0,0,3.0856,3.0855,3.0846,3.0848,3.0846,3.0834,3.0834,3.0831,3.0829,3.0815,3.0812,3.0821,3.0802,3.08,3.0798,3.0802,3.079,3.079,3.0791,3.0792,3.0792,3.081,0,0,0,0,0,0,3.0856,3.0856,3.0859,3.0848,3.0846,3.0847,3.0834,3.0831,3.0829,3.0827,3.0814,3.0812,3.0802,3.0799,3.0798,3.0801,3.079,3.0791,3.0791,3.0792,3.0809,3.0811,3.0813,0,0,0,0,0,3.0857,3.0865,3.086,3.0859,3.0851,3.0848,3.0846,3.0836,3.0829,3.0831,3.0822,3.0812,3.0802,3.0799,3.0797,3.08,3.0791,3.0791,3.0792,3.0809,3.0811,3.0813,0,0,0,0,0,0,3.0877,3.0864,3.0858,3.0863,3.0857,3.0844,3.0848,3.0839,3.0833,3.0832,3.0817,3.0814,3.0813,3.0807,3.0804,3.0803,3.0794,3.0795,3.0808,3.081,3.0812,3.0813,3.0789,0,0,0,0,0,3.0882,3.0882,3.087,3.0876,3.0873,3.0861,3.0859,3.0851,3.0843,3.084,3.083,3.0822,3.0816,3.0812,3.0807,3.0808,3.0803,3.0809,3.0811,3.0812,3.0813,3.0809,3.0811,3.0794,3.0794,3.0794,0,0,3.0893,3.0885,3.0886,3.0879,3.0874,3.0871,3.0859,3.0858,3.0855,3.0839,3.0837,3.0829,3.0818,3.0817,3.0816,3.0811,3.0816,3.0813,3.0815,3.0814,3.081,3.0812,3.0813,3.0795,3.0795,3.0795,0,0,3.091,3.0906,3.0909,3.0903,3.0894,3.0885,3.0886,3.0874,3.0868,3.0866,3.0853,3.0848,3.084,3.0831,3.0826,3.0836,3.0826,3.0834,3.0844,3.0841,3.0842,3.0843,3.0845,3.0846,3.0835,3.0835,3.0835,0,3.0924,3.0923,3.0911,3.0911,3.0906,3.0892,3.0893,3.0887,3.0876,3.0873,3.0868,3.0854,3.0846,3.0841,3.0843,3.084,3.0838,3.0836,3.0843,3.0844,3.0845,3.0846,3.0847,3.0836,3.0836,3.0836,3.0836,0,3.0938,3.0937,3.094,3.093,3.0926,3.0926,3.0913,3.091,3.0901,3.0892,3.0887,3.0876,3.0866,3.0864,3.0856,3.0857,3.0854,3.0846,3.0837,3.0848,3.0848,3.0849,3.0837,3.0837,3.0837,3.0836,0,0,3.097,3.0952,3.0953,3.0947,3.0935,3.0932,3.093,3.0921,3.0917,3.0909,3.0905,3.0896,3.0888,3.0882,3.0872,3.0869,3.0875,3.0861,3.0861,3.0863,3.0871,3.0877,3.0878,3.0868,3.0868,3.0868,3.0872,0,3.0984,3.0981,3.097,3.0969,3.0965,3.095,3.0947,3.0938,3.0928,3.0922,3.0911,3.0904,3.0895,3.089,3.0887,3.0875,3.0876,3.0874,3.0861,3.0861,3.0864,3.0878,3.0885,3.0889,3.0872,3.0872,3.0872,0,3.1001,3.0994,3.0993,3.0978,3.0976,3.0974,3.0963,3.0958,3.0946,3.0938,3.093,3.0919,3.0912,3.0904,3.0893,3.0892,3.0885,3.0878,3.0878,3.0876,3.0867,3.0875,3.0891,3.0891,3.0873,3.0873,3.0873,0,3.1021,3.1012,3.1009,3.1005,3.0987,3.0986,3.0978,3.0965,3.0959,3.0949,3.0944,3.0933,3.0926,3.0917,3.0901,3.0897,3.089,3.0882,3.0882,3.0883,3.0882,3.0882,3.0895,3.0879,3.0879,3.0879,3.0879,0,3.1038,3.1037,3.1018,3.1016,3.1014,3.0999,3.0996,3.0987,3.0975,3.0969,3.0954,3.0949,3.0929,3.092,3.0907,3.0899,3.0896,3.0888,3.0885,3.0889,3.089,3.0885,3.0883,3.0879,3.0879,3.0879,3.0879,0,3.106,3.1048,3.1043,3.1027,3.1022,3.1021,3.1006,3.1002,3.0991,3.0983,3.098,3.0962,3.095,3.0934,3.0917,3.0908,3.0901,3.0896,3.0905,3.0903,3.0904,3.0904,3.0914,3.0913,3.0899,3.0899,3.0899,0,3.1071,3.1071,3.1053,3.1049,3.1042,3.1035,3.1029,3.1013,3.1006,3.099,3.0987,3.0975,3.0964,3.0946,3.093,3.0916,3.0909,3.0914,3.0907,3.0911,3.0907,3.0907,3.0906,3.0915,3.0916,3.0916,3.0916,0,3.1091,3.1084,3.1077,3.1066,3.1059,3.105,3.104,3.1036,3.1017,3.101,3.0999,3.099,3.0972,3.0959,3.0943,3.0932,3.092,3.0918,3.0917,3.0921,3.0926,3.0922,3.0909,3.0918,3.0918,3.0918,3.0917,3.0917,3.1107,3.1104,3.1091,3.1082,3.1073,3.1063,3.1058,3.1046,3.1036,3.1022,3.1012,3.1,3.0984,3.096,3.095,3.0939,3.0934,3.0933,3.0933,3.0932,3.0933,3.0929,3.0936,3.0935,3.0935,3.0935,3.0935,0,3.1124,3.1114,3.1107,3.1093,3.1085,3.1075,3.1062,3.1056,3.1046,3.1033,3.1022,3.1007,3.0993,3.0975,3.0959,3.0953,3.0947,3.095,3.095,3.0947,3.0939,3.0941,3.0955,3.0955,3.0955,3.0955,3.0955,3.0955,3.1132,3.1127,3.1118,3.1106,3.1096,3.1085,3.1078,3.1068,3.1057,3.1041,3.103,3.1019,3.1002,3.0985,3.0971,3.0965,3.0959,3.0963,3.0956,3.0949,3.0948,3.0946,3.0947,3.0963,3.0963,3.0964,3.0965,3.0965]}]]